Satellite-Ground Cal/Val Region Overpasses Predictions

Prediction of Satellite NPP Overpassing Cal/Val Region: PacNW

Region Location: (Latitude: 10.00, Longitude: 139.50) to (Latitude: 22.70, Longitude: 165.60).

Table of predicted overpasses for the next 14.0 days since TLE Epoch: 6/17/2023
Interval Starting Time Starting Location Ending Time Ending Location
1 06/17/2023 02:11:50 ( 20.00, 165.59) 06/17/2023 02:12:36 ( 22.70, 164.92)
2 06/17/2023 03:50:30 ( 10.02, 142.56) 06/17/2023 03:54:05 ( 22.65, 139.56)
3 06/17/2023 14:40:52 ( 22.68, 165.15) 06/17/2023 14:44:27 ( 10.05, 162.16)
4 06/17/2023 16:22:22 ( 22.66, 139.78) 06/17/2023 16:22:40 ( 21.61, 139.51)
5 06/18/2023 03:31:27 ( 10.06, 147.31) 06/18/2023 03:35:02 ( 22.68, 144.31)
6 06/18/2023 16:03:19 ( 22.69, 144.54) 06/18/2023 16:06:55 ( 10.01, 141.53)
7 06/19/2023 03:12:24 ( 10.03, 152.08) 06/19/2023 03:15:59 ( 22.66, 149.08)
8 06/19/2023 15:44:16 ( 22.65, 149.29) 06/19/2023 15:47:51 ( 10.03, 146.30)
9 06/20/2023 02:53:20 ( 10.01, 156.84) 06/20/2023 02:56:56 ( 22.69, 153.83)
10 06/20/2023 15:25:13 ( 22.68, 154.06) 06/20/2023 15:28:48 ( 10.06, 151.06)
11 06/21/2023 02:34:18 ( 10.05, 161.59) 06/21/2023 02:37:53 ( 22.67, 158.60)
12 06/21/2023 15:06:10 ( 22.70, 158.82) 06/21/2023 15:09:46 ( 10.02, 155.81)
13 06/22/2023 02:16:11 ( 13.37, 165.59) 06/22/2023 02:18:49 ( 22.65, 163.36)
14 06/22/2023 03:56:44 ( 10.04, 140.98) 06/22/2023 03:58:32 ( 16.38, 139.51)
15 06/22/2023 14:47:07 ( 22.66, 163.57) 06/22/2023 14:50:42 ( 10.04, 160.58)
16 06/23/2023 03:37:41 ( 10.02, 145.75) 06/23/2023 03:41:17 ( 22.70, 142.73)
17 06/23/2023 14:31:20 ( 11.18, 165.60) 06/23/2023 14:31:40 ( 10.00, 165.33)
18 06/23/2023 16:09:34 ( 22.67, 142.96) 06/23/2023 16:13:09 ( 10.05, 139.97)
19 06/24/2023 03:18:38 ( 10.06, 150.50) 06/24/2023 03:22:13 ( 22.68, 147.50)
20 06/24/2023 15:50:30 ( 22.69, 147.73) 06/24/2023 15:54:06 ( 10.01, 144.72)
21 06/25/2023 02:59:35 ( 10.04, 155.26) 06/25/2023 03:03:10 ( 22.66, 152.26)
22 06/25/2023 15:31:28 ( 22.65, 152.48) 06/25/2023 15:35:03 ( 10.03, 149.48)
23 06/26/2023 02:40:31 ( 10.02, 160.03) 06/26/2023 02:44:06 ( 22.64, 157.03)
24 06/26/2023 15:12:24 ( 22.67, 157.24) 06/26/2023 15:15:59 ( 10.05, 154.25)
25 06/27/2023 02:21:28 ( 10.00, 164.79) 06/27/2023 02:25:04 ( 22.69, 161.78)
26 06/27/2023 14:53:21 ( 22.68, 162.01) 06/27/2023 14:56:57 ( 10.00, 159.00)
27 06/28/2023 03:43:56 ( 10.06, 144.16) 06/28/2023 03:47:31 ( 22.68, 141.17)
28 06/28/2023 14:35:39 ( 17.89, 165.60) 06/28/2023 14:37:53 ( 10.02, 163.76)
29 06/28/2023 16:15:47 ( 22.69, 141.39) 06/28/2023 16:18:00 ( 14.88, 139.51)
30 06/29/2023 03:24:52 ( 10.04, 148.93) 06/29/2023 03:28:27 ( 22.67, 145.93)
31 06/29/2023 15:56:45 ( 22.64, 146.14) 06/29/2023 16:00:20 ( 10.02, 143.15)
32 06/30/2023 03:05:49 ( 10.03, 153.69) 06/30/2023 03:09:24 ( 22.65, 150.69)
